Location: Carrières
(48.9495°N, 2.0407°E)
Time: 23:32:13
(UTC+00:00)

Cosmos 1269 Rocket - Pass Details

Date: 28 January 2023
Orbit: 771 x 779 km, 74.1° (Epoch: 21 March)

Event Time Altitude Azimuth Distance (km) Brightness Sun altitude
Rises 17:37:28 0° 209° (SSW) 3,237 8.0 -9.2°
Reaches altitude 10° 17:39:51 10° 212° (SSW) 2,315 7.3 -9.6°
Maximum altitude 17:45:05 68° 296° (WNW) 837 4.4 -10.4°
Drops below altitude 10° 17:50:23 10° 19° (NNE) 2,336 6.2 -11.3°
Sets 17:52:48 0° 22° (NNE) 3,269 6.9 -11.7°
